EHI
0 0 0 1 1 1 0 0 0 0 2 4 5 5 4 3 4 7 9 8 5 4 6 8 12 16 18 20 22 21 18 14 11 10 10 11 10 8 8 10 11 10 9 10
0 0 1 1 2 2 1 0 1 1 3 6 7 7 5 4 4 7 9 10 9 6 7 11 14 17 20 22 24 23 19 15 12 10 9 10 11 9 8 9 10 10 10 12
1 1 1 2 3 4 2 1 2 3 4 8 10 9 7 5 5 7 9 13 13 10 10 12 15 17 19 22 23 21 18 16 14 12 10 11 13 12 11 9 9 10 12 13
0 0 0 1 2 4 5 5 5 5 5 8 10 10 9 7 7 8 10 12 13 12 11 12 14 16 17 18 20 17 14 15 16 15 15 16 17 15 12 10 10 10 12 13
0 0 0 0 1 3 6 8 7 6 7 8 10 12 11 9 9 10 10 10 10 10 10 10 12 15 17 18 19 17 14 14 17 18 18 20 19 15 12 10 11 11 12 12
0 0 0 0 0 1 4 5 6 7 8 10 10 10 9 9 10 11 10 8 7 7 8 8 10 14 17 19 20 20 17 17 19 20 20 18 15 13 11 10 11 11 11 11
0 0 0 0 0 1 1 2 4 7 9 11 9 6 6 8 10 11 9 7 5 5 6 7 8 11 15 17 19 20 20 19 19 20 19 16 13 13 12 11 10 10 10 10
0 0 0 0 1 0 0 2 4 6 8 10 8 6 6 9 11 12 11 8 6 5 5 5 7 9 13 14 16 18 19 18 17 18 17 15 14 13 12 11 11 10 10 10
2 1 1 1 1 1 1 3 5 7 8 9 9 7 6 9 12 14 13 10 7 6 6 5 5 7 10 12 14 17 17 15 14 14 14 13 13 13 12 11 11 10 9 9
4 3 2 2 3 4 4 5 7 9 9 8 7 6 6 7 9 11 11 10 8 6 5 4 3 5 7 9 13 17 17 14 12 12 12 12 11 10 10 10 10 10 9 9
4 2 2 2 4 6 6 6 8 8 7 5 4 4 5 5 5 5 6 5 5 3 2 2 1 3 5 8 11 14 14 12 11 10 10 10 8 7 7 8 8 8 8 8
1 0 0 1 4 6 7 6 6 5 5 4 3 3 3 4 3 2 1 1 1 0 0 1 1 2 4 7 7 8 8 8 7 8 8 7 5 4 4 4 4 4 4 4
0 0 0 1 3 6 6 5 4 3 2 2 1 1 1 2 2 1 0 0 0 0 0 1 2 2 3 5 5 4 4 4 4 5 5 5 4 3 3 3 2 1 1 1
0 0 0 1 3 6 7 5 2 1 1 1 0 0 0 1 1 0 0 0 0 0 0 0 1 1 2 3 3 3 3 3 3 3 3 3 3 3 3 3 2 1 0 0
0 0 0 1 3 5 6 4 2 1 0 0 0 0 0 0 0 0 0 0 0 0 0 0 0 0 1 2 3 3 3 3 2 2 2 1 2 3 3 3 3 1 0 0
0 0 0 0 2 3 3 2 2 1 0 0 0 0 0 0 0 0 0 0 0 0 0 0 0 0 1 2 3 3 2 1 1 1 1 1 2 2 2 2 2 1 0 0
0 0 0 0 1 1 1 0 0 0 0 0 0 0 0 0 0 0 0 0 0 0 0 0 0 0 0 1 2 1 1 0 0 0 0 0 1 1 1 1 1 0 0 0
0 0 0 0 0 0 0 0 0 0 0 0 0 0 0 0 0 0 0 0 0 0 0 0 0 0 0 0 0 0 0 0 0 0 0 0 0 0 0 0 0 0 0 0
0 0 0 0 0 0 0 0 0 0 0 0 0 0 0 0 0 0 0 0 0 0 0 0 0 0 0 0 0 0 0 0 0 0 0 0 0 0 0 0 0 0 0 0
0 0 0 0 0 0 0 0 0 0 0 0 0 0 0 0 0 0 0 0 0 0 0 0 0 0 0 0 0 0 0 0 0 0 0 0 0 0 0 0 0 0 0 0
0 0 0 0 0 0 0 0 0 0 0 0 0 0 0 0 0 0 0 0 0 0 0 0 0 0 0 0 0 0 0 0 0 0 0 0 0 0 0 0 0 0 0 0
0 0 0 0 0 0 0 0 0 0 0 0 0 0 0 0 0 0 0 0 0 0 0 0 0 0 0 0 0 0 0 0 0 0 0 0 0 0 0 0 0 0 0 0
0 0 0 0 0 0 0 0 0 0 0 0 0 0 0 0 0 0 0 0 0 0 0 0 0 0 0 0 0 0 0 0 0 0 0 0 0 0 0 0 0 0 0 0
0 0 0 0 0 0 0 0 0 0 0 0 0 0 0 0 0 0 0 0 0 0 0 0 0 0 0 0 0 0 0 0 0 0 0 0 0 0 0 0 0 0 0 0
0 0 0 0 0 0 0 0 0 0 0 0 0 0 0 0 0 0 0 0 0 0 0 0 0 0 0 0 0 0 0 0 0 0 0 0 0 0 0 0 0 0 0 0
0 0 0 0 0 0 0 0 0 0 0 0 0 0 0 0 0 0 0 0 0 0 0 0 0 0 0 0 0 0 0 0 0 0 0 0 0 0 0 0 0 0 0 0
0 0 0 0 0 0 0 0 0 0 0 0 0 0 0 0 0 0 0 0 0 0 0 0 0 0 0 0 0 0 0 0 0 0 0 0 0 0 0 0 0 0 0 0
Wind_Speed
3 3 3 3 5 6 6 8 9 8 7 9 7 6 4 3 3 3 2 2 4 5 5 5 6 6 6 6 6 6 6 6 6 6 5 5 4 4 4 4 4 4 3 4
1 1 2 2 3 6 5 5 4 3 6 6 3 2 1 2 3 3 3 4 4 4 4 5 6 6 5 5 5 5 6 6 5 4 4 4 4 4 4 3 3 3 3 4
1 2 2 3 5 5 4 3 6 6 6 2 1 3 4 3 3 4 4 3 3 4 5 4 4 4 5 5 5 5 5 4 4 5 4 4 4 4 4 4 3 4 4 4
2 2 4 7 2 3 3 2 3 3 3 3 3 2 0 1 3 4 4 4 3 2 3 2 2 2 3 3 4 4 4 4 3 4 4 3 4 4 4 3 3 4 4 4
3 2 4 4 2 3 3 3 2 3 2 2 3 3 3 2 2 3 3 3 2 3 3 3 3 3 4 4 3 3 3 3 3 4 4 4 4 4 4 3 3 3 3 4
4 3 5 6 3 2 3 2 2 3 4 4 3 2 2 0 2 3 3 3 3 4 4 4 3 4 5 4 3 2 1 2 2 3 3 4 4 3 2 3 3 3 2 2
3 3 6 4 4 1 3 6 2 3 4 4 4 4 3 3 3 3 3 4 4 4 4 3 3 5 5 4 2 1 1 1 1 1 1 2 2 2 2 2 1 1 1 2
3 2 5 4 2 2 4 2 0 1 2 4 5 5 5 5 4 4 4 4 4 4 3 2 3 4 4 2 1 2 2 1 1 1 1 1 1 1 1 1 1 1 1 2
5 5 4 3 3 3 1 1 0 1 2 6 7 6 5 4 4 3 4 3 3 4 4 3 3 3 3 0 1 3 2 1 1 1 1 1 1 1 0 1 1 1 2 2
0 3 3 3 2 2 2 2 2 3 4 5 7 6 6 5 4 4 3 3 3 4 4 3 2 2 1 1 2 3 2 1 1 1 0 0 1 1 1 1 2 2 2 2
0 3 3 4 3 3 4 5 5 5 5 5 8 6 6 5 4 3 3 3 3 3 3 2 3 2 2 2 2 2 1 1 1 0 0 1 1 1 2 2 3 3 3 3
5 5 3 2 2 2 3 4 5 6 5 5 6 6 6 5 3 3 3 2 3 3 3 3 3 3 3 2 2 2 1 1 0 0 0 0 0 2 2 2 2 3 4 3
3 2 2 1 0 1 2 3 4 6 6 5 4 5 6 4 3 3 3 2 2 2 3 3 3 3 3 3 2 2 1 0 0 0 0 0 0 0 2 3 2 2 3 3
2 3 2 0 1 2 3 4 5 6 6 5 5 5 6 4 3 3 3 2 2 3 4 4 3 3 3 2 2 2 2 1 1 1 1 1 1 1 1 1 2 3 3 3
0 1 3 2 3 3 4 5 7 6 5 5 5 6 6 6 4 3 2 2 4 4 4 4 4 4 4 3 3 2 2 1 1 1 1 1 1 1 1 1 1 2 3 3
2 4 5 5 5 4 5 6 6 4 4 4 4 4 5 5 4 3 3 3 4 4 3 3 3 3 4 3 3 2 2 2 2 1 1 1 1 1 1 1 2 2 2 3
5 3 4 4 4 4 4 4 4 4 3 4 4 4 5 6 5 3 3 3 3 2 2 2 2 3 3 3 3 2 2 2 3 2 1 1 1 1 2 2 2 2 3 3
3 4 4 6 5 4 4 4 4 4 4 3 4 5 5 5 4 2 1 2 3 3 3 2 2 2 3 2 2 2 1 1 2 1 1 2 2 2 2 2 2 3 3 3
4 4 4 4 4 5 4 4 3 4 4 4 4 4 3 3 3 2 2 2 3 2 3 3 4 3 2 2 2 1 1 2 2 2 2 2 2 2 2 2 2 3 3 3
4 5 5 4 4 4 4 4 4 4 3 3 4 4 3 2 2 2 3 2 0 1 2 2 2 2 2 2 3 2 2 2 2 2 3 2 2 3 3 3 3 3 3 3
4 5 5 4 3 3 3 3 4 3 2 3 3 3 2 2 2 2 2 1 2 2 1 2 2 2 2 2 2 2 2 2 2 2 3 3 3 3 3 3 3 3 3 3
3 3 3 4 4 2 2 2 3 4 3 2 2 2 2 2 1 1 1 1 1 2 2 1 1 2 3 3 2 2 2 2 2 2 2 2 3 3 3 3 3 3 3 3
2 2 3 3 3 2 2 2 3 3 3 3 2 2 2 1 1 1 0 1 1 1 1 1 2 3 3 3 2 2 2 2 2 2 2 2 2 2 3 3 3 3 3 3
2 2 2 2 3 4 3 2 3 3 3 2 2 2 2 1 1 0 1 0 1 2 1 2 2 3 3 2 2 2 2 2 2 3 3 2 2 2 3 3 3 3 3 3
3 3 3 4 3 2 3 3 4 4 3 2 2 2 1 1 1 1 1 2 2 3 2 2 3 3 2 2 1 1 1 2 2 2 2 2 3 3 3 3 3 3 3 3
2 2 2 2 2 2 2 3 3 2 2 2 2 2 2 1 1 1 1 2 3 3 2 2 2 2 2 1 1 1 1 2 2 2 2 2 3 3 3 3 4 3 3 3
3 3 2 3 2 2 3 3 3 2 1 2 1 1 1 1 1 1 2 2 2 2 2 2 1 1 1 1 1 2 2 2 2 2 2 2 2 2 3 3 3 3 3 3
Wind_Direction
211 209 180 187 195 182 185 184 187 218 220 244 237 225 210 182 156 143 150 166 180 182 181 181 182 186 188 188 183 179 179 190 202 204 202 202 202 205 210 214 223 221 218 224
357 236 198 220 221 197 199 188 198 206 242 247 231 159 172 189 162 167 178 183 185 180 171 177 183 181 179 182 180 173 182 197 198 196 200 205 205 202 206 214 216 211 222 227
236 295 66 254 233 201 189 187 177 203 231 218 156 186 197 200 185 180 177 175 176 176 174 181 182 172 177 182 168 167 182 191 192 195 205 211 203 198 209 213 211 213 222 227
132 95 206 239 241 175 172 213 203 202 207 186 178 168 111 204 178 160 156 157 168 159 154 144 136 151 148 146 150 163 174 189 190 188 202 204 199 209 216 216 218 227 229 229
124 162 260 287 261 187 184 257 224 187 176 134 123 77 9 3 105 142 144 145 140 135 138 127 136 140 122 122 131 148 173 189 191 188 194 203 212 217 214 211 226 230 231 229
128 153 222 244 282 286 116 269 239 175 172 156 130 140 236 174 100 99 99 107 109 107 103 103 112 113 110 111 117 133 167 197 184 183 190 204 212 212 205 201 222 229 238 237
148 195 255 271 301 32 156 240 234 183 179 167 176 186 162 112 94 102 97 95 94 92 96 105 118 112 110 112 130 144 114 127 118 131 171 178 179 186 188 193 204 224 240 254
138 179 251 314 13 169 228 278 97 155 170 135 123 113 104 97 94 90 83 80 91 96 90 72 85 105 104 109 144 112 107 110 100 104 126 120 115 116 133 160 180 240 261 279
182 212 261 289 253 263 206 121 64 132 133 127 121 116 108 97 89 81 82 75 83 104 89 72 77 103 118 139 89 108 119 133 115 89 83 126 139 148 155 174 196 241 244 264
15 293 312 324 341 24 69 92 85 118 123 120 114 111 102 93 80 70 63 64 72 87 81 61 57 69 81 60 112 125 135 150 131 99 63 73 124 176 198 220 222 239 245 256
222 282 345 359 3 29 60 71 81 91 105 120 118 114 112 106 91 76 70 58 64 86 79 51 49 46 36 59 94 102 110 115 94 113 266 317 305 251 225 239 230 230 242 239
212 221 193 245 312 18 78 87 99 99 89 93 111 117 113 108 99 85 67 64 73 77 74 54 49 34 23 42 87 100 81 48 48 59 329 320 313 331 329 268 281 254 245 247
212 188 171 185 48 57 88 89 98 106 113 109 104 117 114 110 106 95 78 61 60 69 73 64 53 35 18 22 54 89 94 37 353 10 11 306 265 271 322 336 331 306 283 274
173 123 99 107 101 58 91 97 95 90 93 100 106 110 109 106 97 90 81 66 66 56 52 60 59 34 13 30 56 61 56 40 29 344 325 307 291 279 270 291 319 322 318 308
65 133 148 126 89 76 89 96 92 87 86 82 90 107 111 109 103 93 78 70 66 55 40 39 42 20 14 33 57 57 51 32 34 5 341 340 321 308 295 290 295 304 319 327
98 99 113 111 109 103 98 99 101 97 94 91 90 97 103 104 101 92 76 72 70 48 26 28 23 2 10 26 40 41 30 29 34 16 356 355 345 320 309 304 296 297 305 312
125 123 123 121 114 105 101 104 114 117 110 107 108 102 97 93 85 72 57 56 68 55 34 36 7 357 15 26 35 30 18 15 33 31 13 356 340 316 306 299 302 307 310 313
156 157 151 147 142 130 111 101 104 107 112 117 114 105 102 105 111 107 68 57 60 42 22 13 4 2 17 19 26 24 19 10 14 17 4 352 335 321 321 325 325 322 321 324
117 118 111 115 130 130 128 124 119 112 108 109 111 116 123 126 126 120 100 81 67 38 340 345 359 11 12 17 34 30 21 16 15 4 358 357 336 328 332 331 328 321 314 314
110 112 105 98 95 113 124 126 122 115 113 115 111 107 104 107 108 102 94 81 271 244 282 330 357 4 2 8 30 32 25 18 15 7 7 3 345 337 332 327 325 319 314 310
108 106 105 104 93 92 122 135 134 132 129 128 130 135 134 121 109 107 100 56 324 337 2 12 23 9 8 15 23 30 28 24 20 8 355 351 348 342 337 336 333 324 319 316
108 111 112 112 108 98 99 125 137 138 131 125 128 129 122 112 96 83 101 214 285 356 30 23 18 18 23 30 35 31 28 23 13 360 348 345 343 340 341 340 335 332 329 328
123 123 121 124 130 123 100 101 123 130 134 140 147 147 145 153 149 141 305 310 333 42 50 28 19 29 37 45 44 37 29 17 360 348 335 331 330 329 331 335 335 335 335 335
113 109 110 109 104 103 103 100 101 104 109 111 124 138 139 127 79 120 183 19 42 55 57 34 40 47 45 42 40 30 11 351 339 333 329 332 340 344 342 341 341 341 335 336
105 101 102 107 107 117 124 109 91 82 80 70 55 55 80 138 149 131 93 81 72 69 58 47 55 53 49 39 29 10 345 333 331 331 340 350 352 351 351 350 349 347 349 349
100 104 109 113 122 132 127 117 108 98 88 78 54 44 49 52 85 97 87 74 69 69 64 53 52 51 44 31 17 0 347 342 345 351 354 355 350 348 345 345 347 346 344 343
79 79 80 75 70 89 104 109 116 121 125 126 110 52 55 60 68 81 88 87 77 67 56 46 41 34 25 17 13 6 359 354 351 351 352 351 347 343 341 342 343 344 345 346